Wind_Speed
25 25 26 26 27 27 25 23 22 22 22 23 23 24 23 22 21 20 20 19 19 18 18 17 17 18 17 17 16 16 16 16 15 15 14 14 13 13 12 11 11 11 10 9 9 8 8 8 7
27 27 28 28 29 29 26 24 23 23 24 24 24 25 24 23 23 22 21 21 20 20 20 19 19 19 19 18 18 18 17 17 17 16 16 15 14 14 13 12 12 12 11 11 10 9 9 9 9
28 29 30 30 31 30 27 25 25 26 26 26 26 26 26 25 24 23 23 22 22 22 21 21 20 20 20 20 19 19 18 18 18 18 17 16 16 15 15 14 14 13 12 12 11 11 11 10 10
29 30 32 32 31 30 29 27 28 28 28 28 27 27 27 26 26 25 24 24 23 23 23 22 22 21 21 21 20 20 20 19 19 19 18 18 17 17 16 16 15 15 14 13 13 12 12 11 11
31 32 34 34 32 31 31 30 30 30 30 30 30 29 28 28 28 27 26 25 25 24 24 24 24 23 23 22 22 21 21 20 20 20 20 19 19 19 18 17 17 16 16 15 14 14 14 13 13
33 33 35 34 34 33 32 32 32 32 32 32 32 32 31 30 30 29 29 28 27 26 26 26 25 25 25 24 23 23 22 22 21 21 21 20 20 19 19 19 19 18 18 17 16 15 15 15 14
34 35 35 35 35 35 34 34 34 34 34 34 34 34 33 32 32 31 31 30 30 29 28 28 27 27 26 26 25 25 24 24 23 22 22 22 21 21 20 20 20 19 19 18 18 17 16 16 15
35 37 36 36 36 36 36 35 35 36 36 36 36 36 35 34 34 33 33 32 32 31 30 30 29 28 28 28 27 26 26 26 25 25 24 23 23 22 22 21 21 20 20 20 19 19 17 17 16
36 38 37 37 37 36 36 37 37 38 38 38 38 38 37 37 36 35 35 34 34 34 33 32 31 31 30 30 30 29 28 28 27 26 25 25 24 24 23 23 23 22 21 21 20 20 19 18 18
37 38 37 37 37 37 37 38 39 39 39 39 39 39 39 39 38 37 37 36 36 36 35 35 34 33 33 32 32 31 30 30 29 28 27 27 27 26 25 24 24 23 22 22 21 21 20 20 19
38 38 36 37 37 37 38 39 40 41 41 40 40 41 41 41 40 39 38 38 38 38 38 37 36 35 35 34 34 33 33 32 31 30 29 29 29 28 27 26 26 25 24 23 23 23 22 21 21
39 38 38 38 38 38 39 40 41 42 43 42 42 43 43 41 41 40 39 39 40 39 39 38 38 37 36 36 36 35 35 33 33 32 32 31 31 30 29 28 28 27 26 25 25 24 23 23 23
40 39 39 39 39 39 40 41 42 42 43 44 43 42 43 43 42 41 41 41 41 40 40 40 40 39 38 38 38 37 36 35 34 34 34 34 33 32 31 31 30 29 28 27 26 26 25 24 24
39 39 40 40 40 40 41 42 43 42 43 44 44 44 43 43 43 43 42 42 41 41 41 41 41 41 40 40 40 39 38 37 36 36 36 35 35 34 33 32 32 31 31 30 29 28 27 27 26
40 41 41 41 41 42 43 43 43 42 43 43 44 44 44 44 44 44 43 43 43 43 43 43 43 43 42 42 41 40 39 38 38 37 38 37 37 36 35 34 34 33 33 32 31 31 29 29 28
41 42 42 41 41 42 44 44 41 42 42 43 43 43 43 44 44 44 44 44 44 44 44 44 45 45 44 44 42 42 41 41 40 39 39 38 38 38 37 36 36 36 35 34 34 33 31 31 30
43 44 44 43 42 42 44 43 41 42 42 43 43 43 43 44 45 45 45 45 44 45 45 46 46 46 45 45 45 44 44 42 42 42 41 41 40 40 39 38 38 37 37 37 36 34 33 32 32
43 44 45 44 44 44 44 43 42 42 42 43 43 44 44 44 44 45 45 45 45 45 46 47 48 48 47 46 46 46 46 45 44 44 44 44 43 42 41 40 40 39 38 38 38 37 35 34 34
43 44 45 45 45 45 45 44 43 43 44 44 44 45 45 45 44 45 46 46 46 46 46 47 48 48 47 47 47 47 47 47 47 46 45 45 45 44 43 43 42 41 40 40 39 39 38 37 37
42 44 44 45 45 46 46 45 44 44 44 44 44 44 44 45 45 45 46 46 47 47 47 48 48 48 48 47 48 48 48 48 47 47 47 47 46 45 45 45 44 44 43 42 41 41 40 40 40
42 43 44 45 46 46 46 46 45 45 45 44 44 44 44 45 45 46 46 47 47 47 48 48 48 49 49 48 48 49 49 48 48 48 49 48 48 48 48 47 47 46 46 45 44 44 43 43 42
41 42 43 44 45 46 46 47 44 44 45 45 44 44 45 45 46 46 47 47 48 48 48 48 49 49 49 48 48 48 48 48 47 48 50 50 49 49 49 50 49 49 48 47 46 45 45 45 44
40 40 41 42 43 45 45 47 45 43 43 44 44 44 45 45 45 46 46 46 48 49 49 49 49 50 50 49 49 49 50 49 48 48 49 51 51 51 51 51 51 51 51 50 49 48 48 47 46
37 38 40 41 42 44 43 44 45 43 42 42 43 43 44 45 45 45 46 46 47 48 49 50 50 51 52 51 50 50 50 50 50 50 49 49 49 51 51 52 52 52 52 53 52 51 50 49 48
35 36 37 39 41 42 41 43 44 42 40 40 41 42 42 44 45 45 45 46 46 46 48 49 50 51 52 52 51 51 51 51 52 52 52 50 49 50 50 51 52 53 53 53 52 51 51 50 50
32 33 34 36 38 39 39 41 41 41 40 40 40 41 42 43 44 45 45 45 45 46 47 47 49 51 51 51 51 51 51 51 52 53 52 52 51 50 51 51 52 53 54 54 54 53 53 52 52
29 30 32 34 35 36 37 39 40 40 39 39 39 40 41 42 43 45 45 46 46 46 47 47 48 49 50 51 52 52 51 51 52 53 53 53 52 52 51 51 52 53 53 54 54 54 54 54 54
28 29 29 31 33 35 36 36 37 37 37 38 38 39 40 41 42 43 45 46 47 47 47 48 48 48 50 50 51 51 52 52 53 53 53 53 53 53 53 52 52 53 53 54 54 54 54 54 54
27 28 30 30 31 33 34 35 34 35 35 36 38 38 37 38 41 43 44 45 46 47 47 47 47 47 49 49 50 51 52 53 53 54 53 53 53 53 53 53 54 53 53 54 54 54 53 54 54
25 26 28 30 31 33 34 35 33 34 35 35 36 36 37 37 38 40 42 44 45 46 47 47 47 47 47 48 49 50 51 52 53 53 53 53 53 54 53 53 54 54 54 53 53 53 54 54 55
Wind_Direction
249 249 249 249 249 250 251 252 253 253 253 252 251 250 249 248 248 247 246 246 246 246 246 245 245 243 242 242 243 244 245 244 244 244 246 245 242 240 238 238 236 233 233 233 233 234 236 238 240
251 250 249 249 250 251 252 253 254 254 253 253 252 251 249 249 248 248 247 246 246 246 246 245 245 244 244 243 244 245 245 245 244 244 244 244 242 240 239 239 236 234 235 237 238 238 241 244 244
252 251 250 250 251 253 254 253 254 253 252 252 252 252 251 250 249 248 247 247 246 247 246 245 245 245 245 245 245 245 245 245 245 244 243 243 242 239 239 238 237 236 237 238 239 242 244 246 246
253 253 252 253 254 255 255 254 252 252 251 251 251 252 251 250 249 249 248 247 247 246 246 245 244 245 246 246 246 246 245 244 244 244 242 242 242 240 239 239 239 239 240 241 241 245 247 248 250
253 254 254 254 255 255 255 253 253 252 251 250 250 251 250 250 249 249 248 248 247 246 245 245 246 245 246 246 245 245 244 243 242 243 243 242 242 242 241 241 240 240 242 242 244 246 248 249 249
255 255 256 257 256 255 254 254 252 251 250 249 249 249 249 249 249 249 247 247 248 247 247 247 247 246 245 244 243 243 243 242 241 242 243 243 243 242 242 240 240 241 243 244 246 247 247 248 248
257 257 257 258 257 255 253 253 251 250 249 248 248 248 248 249 249 249 248 247 248 248 247 247 246 246 245 244 243 242 242 242 241 241 242 242 242 242 242 241 241 242 243 245 247 247 245 247 247
259 258 258 257 257 256 254 252 251 250 249 248 248 249 249 249 249 249 249 248 248 248 247 247 246 245 245 245 244 243 242 241 241 241 241 242 243 242 241 241 243 243 242 243 245 247 246 247 249
259 259 258 259 258 257 255 253 252 251 250 249 249 249 249 249 249 249 249 248 247 247 246 246 245 245 245 246 245 243 243 242 242 242 241 241 241 242 242 242 243 244 244 243 244 245 245 247 249
260 261 261 260 259 258 256 254 253 252 251 249 249 249 249 249 249 248 248 247 246 245 245 245 245 244 244 245 245 244 243 243 243 242 241 242 241 242 243 242 242 244 244 244 244 245 246 247 249
262 262 262 260 260 259 258 255 254 253 252 251 250 249 248 248 248 248 247 247 246 245 245 245 245 245 245 244 244 244 244 244 244 243 242 242 243 243 243 243 243 244 244 245 245 245 245 247 248
263 262 261 260 260 260 259 256 255 254 253 251 250 250 249 248 248 247 247 246 246 245 245 245 245 244 244 244 244 244 244 244 244 243 242 242 242 243 245 245 244 245 246 245 245 244 246 246 248
263 262 260 261 261 260 259 258 256 254 253 251 250 250 250 248 247 247 246 246 246 246 245 244 244 244 244 244 244 243 243 243 244 243 242 243 243 243 245 246 246 246 247 245 246 246 247 247 248
263 261 260 260 260 260 260 258 257 256 253 251 250 250 250 249 248 247 247 246 246 246 244 243 243 244 244 243 244 243 244 243 244 244 244 243 243 244 245 245 245 246 246 246 247 247 248 249 250
261 260 259 259 259 260 260 258 258 257 254 251 250 251 250 250 248 247 247 246 245 245 244 243 242 242 243 243 243 243 242 242 244 244 245 243 244 244 245 245 245 246 246 246 247 247 248 249 250
260 260 260 259 259 260 260 259 258 256 254 251 250 250 250 250 248 247 246 245 245 245 245 243 242 242 242 243 244 244 243 244 245 244 245 245 245 245 245 245 246 246 246 247 247 248 248 250 250
261 261 261 260 259 260 260 260 257 256 253 252 250 249 250 250 248 247 247 246 245 245 245 244 242 242 242 243 244 244 243 244 245 245 245 246 247 246 247 246 246 246 247 248 248 248 249 250 251
263 263 262 261 261 260 260 260 258 255 254 253 251 250 250 251 250 248 247 246 245 245 245 244 243 242 241 242 243 244 245 245 246 246 246 246 246 246 246 246 246 246 247 248 249 249 250 251 251
264 263 263 262 261 260 260 259 257 256 254 253 252 251 250 249 248 247 246 245 245 245 246 245 244 243 243 243 244 245 246 246 246 247 248 248 247 245 245 246 247 247 247 248 249 250 250 251 252
264 263 263 261 260 260 260 258 256 255 254 254 252 251 250 249 247 246 246 246 246 246 246 245 244 243 243 244 244 245 246 246 247 247 248 249 248 247 246 246 246 247 247 248 249 250 250 251 252
265 264 263 263 262 261 260 258 256 255 255 254 253 251 250 248 247 246 245 245 246 245 245 245 244 243 243 244 244 245 246 247 248 248 248 247 248 247 246 245 247 248 248 248 248 250 250 251 252
266 264 263 263 262 261 260 259 255 255 253 253 252 250 249 249 248 246 245 245 246 246 245 245 244 243 243 244 245 245 246 247 248 248 247 248 249 248 248 247 247 247 247 247 248 250 250 251 252
268 265 263 263 262 262 259 259 256 254 252 251 251 250 248 248 248 246 245 246 246 246 245 245 244 243 243 245 246 246 246 247 248 249 249 248 248 248 248 247 246 246 247 248 249 250 251 251 251
268 266 264 263 262 261 259 259 257 255 254 251 250 249 248 247 247 247 246 245 245 246 245 245 244 244 245 246 246 247 247 247 248 249 249 250 249 249 249 247 247 247 247 248 249 250 250 251 252
268 267 265 264 261 261 259 258 258 256 254 252 250 249 249 247 245 245 246 245 245 246 247 246 246 246 246 247 247 248 248 248 248 249 249 250 250 250 249 248 248 248 248 249 249 249 250 250 251
270 267 265 265 264 263 260 259 258 257 256 254 253 252 252 250 247 245 245 246 246 246 246 247 247 246 246 247 247 247 247 248 249 249 250 250 251 251 250 249 250 249 249 249 249 249 250 251 251
273 266 265 265 265 264 263 262 260 258 257 256 255 254 253 252 249 247 247 247 247 246 246 247 247 246 246 246 246 246 247 247 247 248 250 251 251 252 252 251 251 250 250 249 249 249 250 251 251
273 268 264 265 267 267 265 264 262 259 259 257 257 257 256 254 251 249 248 248 248 247 246 247 248 247 246 246 246 246 246 246 247 247 249 250 251 252 252 252 252 251 251 250 250 250 251 251 252
273 269 264 265 267 268 268 265 264 262 261 259 258 257 258 255 254 252 250 249 249 248 248 247 248 248 247 246 246 247 245 246 246 247 248 250 250 250 252 252 252 252 252 252 251 250 250 251 252
277 273 268 265 265 265 267 267 265 263 262 261 260 259 258 257 255 253 251 250 249 248 248 248 248 248 248 247 246 246 245 246 246 247 249 250 250 250 250 250 251 251 251 251 251 250 250 251 252
Height
5814 5815 5816 5817 5818 5818 5820 5822 5823 5824 5825 5825 5826 5827 5828 5830 5831 5834 5833 5832 5833 5834 5835 5835 5836 5837 5838 5839 5840 5840 5841 5842 5842 5843 5844 5844 5845 5845 5846 5846 5847 5847 5848 5848 5849 5849 5850 5850 5850
5809 5809 5811 5811 5812 5813 5815 5817 5819 5820 5820 5820 5821 5822 5823 5824 5826 5827 5827 5828 5829 5830 5831 5832 5833 5834 5835 5836 5837 5837 5838 5839 5840 5840 5841 5842 5842 5843 5843 5844 5845 5845 5846 5846 5847 5848 5848 5848 5849
5803 5804 5805 5805 5806 5808 5811 5813 5814 5814 5814 5815 5816 5817 5818 5820 5821 5822 5823 5824 5825 5826 5827 5828 5829 5830 5831 5832 5833 5834 5835 5836 5836 5837 5838 5839 5840 5840 5841 5842 5842 5843 5844 5844 5845 5845 5846 5846 5847
5797 5798 5798 5799 5800 5803 5804 5807 5807 5807 5808 5809 5810 5811 5813 5815 5816 5817 5818 5819 5820 5821 5822 5824 5825 5826 5827 5828 5829 5830 5831 5832 5833 5834 5835 5836 5837 5837 5838 5839 5839 5840 5841 5842 5842 5843 5844 5844 5844
5790 5791 5792 5792 5794 5797 5798 5799 5800 5801 5802 5803 5804 5805 5807 5809 5810 5811 5812 5814 5815 5816 5817 5819 5820 5821 5823 5824 5825 5826 5827 5828 5829 5830 5831 5832 5833 5834 5835 5836 5837 5837 5838 5839 5839 5840 5841 5841 5842
5783 5784 5785 5786 5788 5790 5791 5792 5793 5794 5795 5796 5797 5799 5801 5802 5803 5805 5806 5808 5809 5811 5812 5814 5815 5816 5818 5819 5820 5821 5822 5824 5825 5826 5827 5828 5829 5830 5831 5832 5833 5834 5835 5836 5836 5837 5838 5838 5839
5777 5776 5777 5779 5780 5782 5784 5784 5785 5786 5787 5789 5790 5792 5794 5795 5797 5798 5800 5802 5803 5805 5807 5808 5810 5811 5812 5814 5815 5816 5818 5819 5820 5822 5823 5824 5825 5826 5827 5828 5829 5830 5831 5832 5833 5834 5835 5835 5836
5768 5768 5769 5770 5771 5773 5775 5776 5777 5778 5780 5781 5782 5784 5786 5788 5789 5791 5793 5795 5797 5798 5800 5802 5804 5805 5807 5808 5810 5811 5813 5814 5815 5817 5818 5819 5821 5822 5823 5824 5825 5826 5827 5828 5829 5830 5831 5832 5833
5759 5760 5760 5762 5763 5765 5766 5767 5768 5769 5771 5772 5774 5776 5778 5779 5781 5783 5785 5787 5789 5791 5793 5795 5797 5799 5801 5802 5804 5805 5807 5808 5810 5811 5813 5814 5816 5817 5819 5820 5821 5822 5823 5824 5825 5826 5827 5828 5829
5750 5750 5754 5754 5754 5755 5756 5757 5758 5760 5761 5763 5765 5767 5768 5770 5772 5775 5777 5779 5781 5783 5785 5787 5789 5792 5794 5796 5797 5799 5801 5803 5804 5805 5807 5809 5810 5812 5814 5815 5816 5817 5819 5820 5821 5822 5823 5824 5825
5741 5742 5745 5744 5745 5745 5746 5747 5748 5750 5752 5754 5756 5757 5758 5761 5763 5765 5768 5770 5772 5774 5777 5779 5782 5784 5786 5789 5791 5792 5794 5796 5798 5800 5801 5803 5805 5806 5808 5810 5811 5812 5814 5815 5816 5817 5818 5819 5820
5732 5733 5734 5735 5735 5736 5736 5737 5738 5740 5742 5743 5745 5746 5748 5751 5754 5756 5758 5760 5763 5765 5768 5770 5773 5776 5778 5781 5783 5785 5787 5789 5791 5793 5795 5797 5799 5801 5802 5804 5806 5807 5809 5810 5811 5812 5813 5815 5816
5721 5723 5724 5724 5725 5725 5726 5727 5728 5730 5731 5732 5734 5736 5739 5742 5744 5746 5749 5751 5753 5756 5759 5761 5764 5767 5770 5773 5775 5777 5779 5782 5784 5786 5788 5790 5792 5794 5796 5798 5800 5801 5803 5804 5806 5807 5808 5810 5811
5712 5712 5713 5714 5715 5715 5715 5716 5717 5720 5721 5722 5724 5726 5729 5731 5734 5737 5739 5742 5744 5746 5749 5752 5755 5758 5761 5764 5766 5769 5772 5774 5776 5779 5781 5783 5785 5787 5790 5792 5793 5795 5797 5798 5800 5802 5803 5804 5805
5701 5702 5703 5704 5704 5704 5704 5705 5707 5710 5709 5711 5713 5716 5718 5721 5723 5726 5729 5731 5734 5736 5739 5742 5745 5748 5751 5754 5757 5760 5763 5766 5768 5770 5773 5775 5777 5780 5782 5784 5786 5788 5790 5792 5794 5795 5797 5798 5799
5690 5690 5692 5694 5694 5693 5694 5694 5699 5698 5698 5700 5703 5705 5707 5710 5713 5715 5718 5720 5723 5726 5729 5732 5735 5738 5741 5744 5748 5751 5754 5757 5760 5762 5764 5767 5769 5772 5774 5777 5779 5781 5783 5785 5787 5788 5790 5791 5793
5678 5679 5680 5683 5682 5682 5681 5683 5687 5686 5687 5689 5691 5694 5697 5699 5702 5705 5707 5710 5713 5715 5718 5721 5724 5728 5731 5735 5738 5741 5745 5748 5751 5753 5756 5758 5761 5763 5766 5769 5771 5773 5775 5777 5779 5781 5783 5784 5786
5668 5668 5668 5670 5670 5670 5669 5671 5674 5675 5676 5678 5680 5683 5686 5688 5691 5693 5696 5699 5702 5704 5707 5710 5713 5717 5721 5725 5728 5732 5735 5738 5741 5744 5746 5749 5751 5754 5757 5760 5762 5765 5767 5769 5771 5773 5775 5777 5778
5655 5655 5655 5658 5657 5657 5657 5659 5661 5662 5664 5667 5669 5671 5674 5677 5679 5682 5685 5687 5690 5693 5696 5699 5703 5706 5710 5714 5718 5721 5724 5727 5731 5734 5736 5739 5742 5744 5747 5750 5753 5756 5758 5760 5762 5764 5766 5768 5770
5642 5641 5643 5644 5644 5643 5644 5646 5649 5651 5653 5655 5657 5660 5662 5665 5667 5670 5673 5676 5679 5682 5685 5688 5692 5696 5700 5703 5707 5710 5713 5716 5720 5723 5726 5728 5731 5734 5737 5740 5743 5746 5748 5751 5753 5755 5757 5759 5761
5629 5630 5631 5631 5631 5631 5631 5633 5637 5639 5641 5643 5645 5648 5650 5653 5656 5659 5661 5665 5667 5670 5673 5677 5680 5684 5688 5692 5695 5699 5702 5705 5709 5712 5714 5717 5720 5723 5726 5729 5732 5735 5738 5740 5743 5745 5748 5750 5751
5617 5618 5618 5618 5617 5618 5619 5619 5625 5626 5628 5631 5633 5636 5638 5641 5644 5647 5650 5653 5656 5659 5662 5665 5669 5673 5676 5680 5683 5687 5691 5694 5698 5700 5702 5705 5708 5711 5714 5718 5721 5724 5726 5729 5732 5734 5737 5739 5741
5605 5606 5605 5605 5605 5605 5606 5606 5611 5613 5615 5619 5622 5624 5626 5629 5632 5635 5638 5641 5644 5647 5650 5654 5657 5661 5664 5668 5671 5675 5679 5682 5685 5688 5690 5693 5696 5699 5702 5705 5708 5711 5714 5717 5720 5723 5726 5728 5730
5593 5594 5593 5592 5592 5591 5595 5595 5597 5601 5604 5607 5610 5612 5614 5617 5620 5623 5626 5629 5632 5635 5638 5641 5645 5649 5652 5656 5659 5663 5666 5670 5673 5676 5679 5681 5684 5687 5690 5693 5696 5699 5702 5705 5708 5711 5714 5716 5719
5583 5583 5582 5580 5579 5580 5584 5583 5586 5590 5592 5595 5598 5600 5602 5604 5607 5610 5613 5617 5620 5623 5626 5629 5633 5636 5640 5644 5647 5651 5654 5657 5660 5663 5666 5669 5672 5675 5678 5680 5683 5686 5689 5692 5695 5698 5701 5704 5707
5573 5572 5572 5571 5570 5571 5572 5571 5577 5579 5581 5583 5585 5588 5590 5592 5595 5598 5601 5604 5607 5610 5613 5617 5620 5624 5627 5631 5634 5638 5641 5644 5648 5651 5653 5657 5660 5662 5665 5667 5670 5673 5676 5679 5682 5686 5688 5691 5694
5563 5562 5562 5561 5560 5560 5560 5562 5566 5567 5570 5572 5574 5576 5578 5580 5582 5585 5588 5591 5594 5597 5600 5604 5607 5611 5614 5617 5621 5625 5628 5631 5635 5638 5640 5643 5647 5649 5652 5655 5657 5660 5662 5666 5669 5672 5675 5678 5681
5555 5554 5553 5552 5550 5550 5551 5552 5555 5557 5559 5561 5562 5564 5566 5568 5570 5572 5575 5579 5582 5585 5588 5591 5594 5597 5601 5604 5607 5611 5615 5618 5621 5624 5627 5630 5633 5636 5639 5641 5644 5647 5649 5652 5655 5659 5662 5665 5668
5547 5546 5544 5543 5543 5542 5541 5545 5546 5547 5549 5550 5551 5553 5554 5556 5558 5560 5563 5566 5569 5572 5575 5578 5581 5585 5588 5591 5594 5597 5601 5604 5608 5611 5614 5617 5620 5623 5625 5628 5630 5633 5636 5639 5641 5645 5648 5651 5654
5538 5537 5536 5536 5534 5533 5533 5537 5537 5537 5538 5539 5540 5541 5543 5544 5546 5548 5550 5553 5556 5559 5562 5565 5569 5572 5575 5578 5581 5584 5587 5590 5594 5597 5601 5603 5606 5609 5612 5614 5617 5619 5622 5625 5628 5631 5634 5637 5640